User: anonymous   Login
Location: Colonia Mina de C?rbuni
(46.1667°N, 22.7167°E)
Time: 01:50:10
(UTC+00:00)
Language:

CSL-04 Rocket - Orbit

View from above orbital plane
View from above orbital plane
View from above satellite
View from above satellite

Ground track
Ground track

The orbit data is extracted from the following two-line orbital elements,

1 25732U 99025C   24109.34840881  .00000269  00000-0  15197-3 0  9999
2 25732  98.7581 155.3018 0037612 165.8534 214.8083 14.17939636290324
Epoch (UTC): 18 April 2024 08:21:42
Eccentricity: 0.0037612
inclination: 98.7581°
perigee height: 805 km
apogee height: 859 km
right ascension of ascending node: 155.3018°
argument of perigee: 165.8534°
revolutions per day: 14.17939636
mean anomaly at epoch: 214.8083°
orbit number at epoch: 29032

The dashed part of the orbit path shows where the satellite is in the earth's shadow,  

DLR